www.pogodaiklimat.ru

Погода и климат >> Архив погоды >> Китай >> Beijing


АРХИВ ПОГОДЫ в Beijing

Время (UTC), дата Ветер
(напр.,м/с)
 
Видим.   Явления Облачность Т
(С)
Тd
(С)
f
(%)
Тe
(С)
Тes
(С)
Комфортность P
(гПа)
Po
(гПа)
Тmin
(С)
Tmax
(С)
R
(мм)
S
(см)
18 15.02 СВ 1 1600 м мгла н/о +3.1 -5.1 55 +2 +2 тепло 1012.9 1008.9 +8.7
21 15.02 В 2 1700 м мгла ?/? +2.1 -5.8 56 -1 -1 по сезону 1012.0 1012.0
00 16.02 СВ 4 2900 м мгла 9/9
[]
+6.5 -6.8 38 +4 +4 тепло 1014.2 1010.2
03 16.02 СВ 7 12 км 9/9
[]
+8.5 -8.1 30 +5 +5 тепло 1017.4 1017.0
06 16.02 СВ 7 15 км 9/9
[]
+7.6 -15.9 17 +4 +4 по сезону 1018.8 1014.8 +1.6
09 16.02 В 6 30 км 9/9
[]
+6.6 -16.0 18 +3 +3 по сезону 1022.4 1022.0
12 16.02 С 3 30 км 6/6
[]
+4.3 -15.6 22 +2 +2 по сезону 1026.9 1022.8
15 16.02 С 6 30 км ?/? +2.8 -19.9 17 -2 -2 по сезону 1030.3 1030.0
18 16.02 С 4 30 км н/о +1.1 -19.4 20 -3 -3 по сезону 1032.0 1027.9 +9.3
21 16.02 С 4 30 км ?/? +0.3 -19.5 21 -4 -4 по сезону 1032.6 1033.0
00 17.02 С 3 30 км 3/3
[]
-0.4 -21.2 19 -4 -3 по сезону 1034.1 1030.0
03 17.02 С 2 30 км ясно +3.2 -23.5 12 +2 +9 по сезону 1033.6 1034.0
06 17.02 С 3 30 км ясно +5.4 -22.8 11 +3 +9 по сезону 1029.8 1025.7 -1.0
09 17.02 З 4 13 км ясно +4.8 -14.6 23 +2 +2 по сезону 1028.3 1028.0
12 17.02 ЮЗ 2 8000 м ясно +1.8 -13.9 30 -0 -0 по сезону 1028.3 1024.2
15 17.02 ЮЗ 2 7000 м мгла ?/? +0.6 -14.2 32 -2 -2 по сезону 1027.4 1027.0
18 17.02 Ю 2 5000 м мгла н/о -0.1 -13.7 35 -3 -3 по сезону 1026.3 1022.2 +6.2
21 17.02 Ю 1 4000 м мгла ?/? -3.4 -13.1 47 -5 -5 по сезону 1025.1 1025.0
00 18.02 СЗ 1 3300 м мгла 8/8
[]
-2.8 -11.8 50 -4 -4 по сезону 1026.1 1022.0
03 18.02 С 1 н/о мгла ясно +4.4 -13.4 26 +4 +13 опасность
простуды
1025.6 1026.0
06 18.02 ЮЗ 3 н/о мгла 3/3
[]
+8.9 -12.2 21 +7 +11 тепло 1021.8 1017.7 -3.7
09 18.02 Ю 2 11 км 3/3
[]
+9.6 -11.7 21 +9 +9 тепло 1019.1 1019.0
12 18.02 Ю 2 7000 м мгла 9/9
[]
+7.1 -9.7 29 +6 +6 тепло 1017.3 1013.2
15 18.02 ЮВ 3 н/о мгла ?/? +4.5 -7.0 43 +2 +2 тепло 1013.9 1014.0
18 18.02 СВ 2 4000 м мгла ?/? +1.8 -5.6 58 -1 -1 по сезону 1010.2 1006.2 +10.2
21 18.02 В 1 2700 м мгла ?/? 0.0 -5.2 68 -2 -2 по сезону 1006.9 1007.0
00 19.02 СВ 1 2700 м мгла 9/9
[]
+0.9 -4.7 66 -1 -1 по сезону 1007.0 1003.0
03 19.02 С 5 3800 м мгла 9/9
[]
+6.9 -5.4 41 +4 +4 тепло 1006.9 1007.0
06 19.02 СВ 4 4800 м мгла 9/9
[]
+13.0 -6.6 25 +12 +12 тепло 1006.4 1002.4 -0.6
09 19.02 С 6 13 км 9/9
[]
+10.5 -17.7 12 +8 +8 тепло 1010.9 1011.0
12 19.02 С 6 11 км ясно +6.4 -21.0 12 +3 +3 по сезону 1017.0 1013.0
15 19.02 С 6
{19}
28 км ?/? +3.3 -20.1 16 -1 -1 по сезону 1021.9 1022.0
18 19.02 С 6
{19}
30 км ?/? +1.3 -20.4 18 -4 -4 по сезону 1025.0 1021.0 +14.2
21 19.02 С 5 30 км ?/? -0.5 -21.3 19 -5 -5 по сезону 1027.6 1028.0
00 20.02 С 3 30 км 9/9
[]
-2.2 -20.1 24 -6 -6 по сезону 1031.9 1027.8
03 20.02 С 4 30 км 9/9
[]
+1.3 -21.1 17 -2 -2 по сезону 1034.2 1034.0
06 20.02 С 4 30 км 9/9
[]
+3.7 -22.2 13 +1 +1 по сезону 1032.1 1028.0 -2.3
09 20.02 СВ 2 30 км 9/9
[]
+4.5 -21.6 13 +3 +3 по сезону 1031.9 1032.0
12 20.02 Ю 2 16 км 4/4
[]
+1.7 -20.1 18 -0 -0 по сезону 1033.7 1029.5
15 20.02 ЮЗ 1 11 км ?/? -0.8 -19.4 23 -2 -2 по сезону 1035.0 1035.0
18 20.02 Ю 2 8000 м ?/? -1.0 -18.6 25 -4 -4 по сезону 1033.8 1029.7 +5.1
21 20.02 ЮЗ 2 6000 м мгла ?/? -2.2 -15.6 35 -5 -5 по сезону 1034.0 1034.0
00 21.02 Ю 2 7000 м 10/10
[]
-1.2 -15.1 34 -4 -4 по сезону 1033.5 1029.3
03 21.02 ЮЗ 3 8000 м 9/9
[]
+1.1 -15.4 28 -2 -2 по сезону 1032.6 1033.0
06 21.02 ЮЗ 2 6000 м слабый снег 10/10 200 м
[]
-1.6 -3.8 85 -5 -5 очень
холодно
1030.7 1026.5 -2.4 2 2
09 21.02 Ю 2 17 км {снег} 10/10 1500 м
[]
-1.0 -5.4 72 -5 -5 холодно 1027.9 1028.0
12 21.02 Ю 3 800 м снег 10/10 100 м
[]
-2.7 -4.0 91 -8 -8 очень
холодно
1027.2 1023.0 2
15 21.02 ЮЗ 2 1600 м слабый снег ?/? -3.2 -4.5 91 -7 -7 прохладно 1026.2 1026.0
18 21.02 Ю 2 2200 м ?/? -3.3 -4.6 91 -7 -7 прохладно 1024.5 1020.3 +2.2 2
21 21.02 ЮЗ 2 1800 м дымка ?/? -3.4 -4.8 90 -8 -8 прохладно 1022.9 1023.0
00 22.02 З 2 1400 м дымка 9/9
[]
-4.2 -5.6 90 -8 -8 прохладно 1023.3 1019.1 2
03 22.02 З 2 1700 м мгла 9/9
[]
-0.6 -4.5 75 -4 -3 прохладно 1023.8 1024.0
06 22.02 З 2 2100 м мгла 9/9
[]
+2.4 -3.1 67 -0 0 прохладно 1021.5 1017.4 -4.6
09 22.02 З 2 2100 м мгла 9/9
[]
+3.9 -2.3 64 +1 +1 по сезону 1022.1 1022.0
12 22.02 С 7 30 км ясно +4.4 -11.7 30 -0 -0 по сезону 1025.5 1021.4

 

Местоположение метеостанции Beijing (Китай): широта 39.93 долгота 116.28 высота над уровнем моря 55 м.

В архиве по умолчанию представлена погода в Beijing за последнюю неделю. Архивные данные за месяц целиком и за предыдущие месяцы, начиная с января 2011 года, Вы можете получить, выбрав интересующий диапазон дат из раскрывающегося списка и нажав кнопку "Ввод!".

Внимание! Время в таблицах - всемирное. Для получения местного времени необходимо прибавить поправку, которая в Beijing равна 8 ч.

Смотрите также архив погоды в соседних городах и на ближайших метеорологических станциях:

Погода в Huailai (Китай) (84 км)
Погода в Tianjin (Китай) (119 км)
Погода в Baoding (Китай) (135 км)
Погода в Fengning (Китай) (146 км)
Погода в Yu Xian (Китай) (147 км)
Погода в Zhangjiakou (Китай) (152 км)
Погода в Tangshan (Китай) (162 км)
Погода в Chengde (Китай) (183 км)
Погода в Potou (Китай) (207 км)
Погода в Leting (Китай) (231 км)

Пояснения к столбцам:

Ветер - указаны скорость ветра в м/с - средняя за 10 мин, порывы в срок и между сроками (в фигурных скобках) и направление, откуда дует ветер: С - северный, СВ - северо-восточный, В - восточный, ЮВ - юго-восточный, Ю - южный, ЮЗ - юго-западный, З - западный, СЗ - северо-западный.
Видимость - горизонтальная дальность видимости в метрах или километрах. При видимости от 1 до 10 км при отсутствии осадков обычно наблюдается дымка, при ухудшении видимости до 1 км и менее - туман. В сухую погоду видимость может ухудшаться дымом, пылью или мглою.
Явления - указаны атмосферные явления, наблюдавшиеся в срок или в последний час перед сроком; фигурными скобками обозначены явления, наблюдавшиеся между сроками (за 1-3 часа до срока); квадратными скобками обозначены град или гололедные отложения с указанием их диаметра в мм.
Облачность - указаны через наклонную черту общая и нижняя облачность в баллах и высота нижней границы облаков в метрах; квадратными скобками обозначены формы облаков: Ci - перистые, Cs - перисто-слоистые, Cc - перисто-кучевые, Ac - высококучевые, As - высокослоистые, Sc - слоисто-кучевые, Ns - слоисто-дождевые, Cu - кучевые, Cb - кучево-дождевые. Подробнее классификацию облаков см. в Атласе облаков (PDF).
T - Температура воздуха - температура, измеренная на высоте 2 м над землей.
Td - Температура точки росы - температура, при понижении до которой содержащийся в воздухе водяной пар достигнет насыщения.
f - Относительная влажность воздуха - влажноcть воздуха, измеренная на высоте 2 м над землей.
Te - Эффективная температура - температура, которую ощущает одетый по сезону человек в тени. Характеристика душности погоды. При расчете учитывается влияние влажности воздуха и скорости ветра на теплоощущения человека.
Tes - Эффективная температура на солнце - температура, которую ощущает человек, с поправкой на солнечный нагрев. Характеристика знойности погоды. Зависит от высоты солнца над горизонтом, облачности и скорости ветра. Ночью, в пасмурную погоду, а также при ветре 12 м/с и более поправка равна нулю.
P - Атмосферное давление - приведенное к уровню моря атмосферное давление.
Po - Атмосферное давление - измеренное на уровне метеостанции атмосферное давление.
Tmin - Минимальная температура - минимум температуры воздуха на высоте 2 м над землей.
Tmax - Максимальная температура - максимум температуры воздуха на высоте 2 м над землей.
R - Количество осадков - Количество выпавших осадков, мм. При наведении курсора мыши на число - период времени, за который выпало указанное количество осадков.
S - Снежный покров - Высота снежного покрова, см. При наведении курсора мыши на число - состояние снежного покрова и степень покрытия местности в баллах.